Skip Page Navigation
NASA JPL Caltech
NASA Logo - Jet Propulsion Laboratory + View the NASA Portal
+ Near-Earth Object (NEO) Program
Search JPL
JPL Home Earth Solar System Stars & Galaxies Technology
JPL Solar System Dynamics
BODIES ORBITS EPHEMERIDES TOOLS PHYSICAL DATA DISCOVERY FAQ SITE MAP
JPL Small-Body Database Browser
Search: [ help ]  
18106 Blume (2000 NX3)
Classification: Amor [NEO]          SPK-ID: 2018106
Ephemeris | Orbit Diagram | Orbital Elements | Physical Parameters | Discovery Circumstances | Close-Approach Data ]

[ show orbit diagram ]
Orbital Elements at Epoch 2456800.5 (2014-May-23.0) TDB
Reference: JPL 22 (heliocentric ecliptic J2000)
 Element Value Uncertainty (1-sigma)   Units 
e .512706664573563 6.0245e-08  
a 2.442483315656723 1.7398e-08 AU
q 1.190205841609788 1.4889e-07 AU
i 4.221016107694018 7.4038e-06 deg
node 109.2595041750243 8.8213e-05 deg
peri 234.9587310412468 9.5918e-05 deg
M 212.1257991775537 1.9754e-05 deg
tp 2457373.211290982722
(2015-Dec-16.71129098)
8.2428e-05 JED
period 1394.26663750046
3.82
1.4897e-05
4.079e-08
d
yr
n .2582002540384828 2.7587e-09 deg/d
Q 3.694760789703659 2.6318e-08 AU
  Orbit Determination Parameters
   # obs. used (total)      251  
   data-arc span      12909 days (35.34 yr)  
   first obs. used      1977-09-04  
   last obs. used      2013-01-07  
   planetary ephem.      DE431  
   SB-pert. ephem.      SB431-BIG16  
   condition code      0  
   fit RMS      .51856  
   data source      ORB  
   producer      Otto Matic  
   solution date      2014-Jun-09 22:01:36  

Additional Information
 Earth MOID = .192153 AU 
 T_jup = 3.304 
[ show covariance matrix ]

Ephemeris | Orbit Diagram | Orbital Elements | Physical Parameters | Discovery Circumstances | Close-Approach Data ]

Physical Parameter Table
Parameter Symbol Value Units Sigma Reference Notes
absolute magnitude H 17.7 mag n/a MPO250392  

18106 Blume           Discovered 2000 July 4 by the Lowell Observatory Near-Earth Object Search at the Anderson Mesa Station.
William H. Blume (b. 1948), a senior mission designer at the Jet Propulsion Laboratory, has played a key role in the development of the Deep Impact mission to comet 9P/Tempel.
NOTE: some special characters may not display properly (any characters within {} are an attempt to place the proper accent above a character)
Reference: 20050721/MPCPages.arcLast Updated: 2005-07-21

[ show close-approach data ]
Alternate Designations
 2000 NX3 = 1977 RE 
Ephemeris | Orbit Diagram | Orbital Elements | Physical Parameters | Discovery Circumstances | Close-Approach Data ]
ABOUT SSD CREDITS/AWARDS PRIVACY/COPYRIGHT GLOSSARY LINKS
FirstGov 2014-Jul-26 03:06 UT
(server date/time)  
NASA Home Page
Site Manager:   Donald K. Yeomans
Webmaster  Alan B. Chamberlin